International Skating Union - Official Site

ISU World Cup Erfurt
March 21-22, 2015

Draw | Lap Times | Index | World Cup

Referee: Daniel  CABELDUC  (SWE)
Starter: Stefan  HERRMANN  (GER)
StartTime: EndTime: Air Temp: Ice Temp: Humidity:
16:32 17:21 14.5℃ -5.4℃ 35%
Result 5000m Men Division A
Rankings as of Mar 22 2015 5:31PM
Rank: No.: Name: Nation: Time: Behind: Points:
1 128 Jorrit  Bergsma NED NED 6:17.49200m - 19.08 - (19.0)
600m - 48.36 - (29.2)
1000m - 1:18.37 - (30.0)
1400m - 1:48.33 - (29.9)
1800m - 2:18.30 - (29.9)
2200m - 2:48.06 - (29.7)
2600m - 3:18.09 - (30.0)
3000m - 3:48.00 - (29.9)
3400m - 4:17.86 - (29.8)
3800m - 4:47.27 - (29.4)
4200m - 5:16.95 - (29.6)
4600m - 5:46.81 - (29.8)
5000m - 6:17.49 - (30.6)
150
2 143 Sverre  Lunde Pedersen NOR NOR 6:20.64200m - 18.82 - (18.8)
600m - 48.55 - (29.7)
1000m - 1:18.99 - (30.4)
1400m - 1:49.34 - (30.3)
1800m - 2:19.76 - (30.4)
2200m - 2:49.99 - (30.2)
2600m - 3:20.26 - (30.2)
3000m - 3:50.32 - (30.0)
3400m - 4:20.50 - (30.1)
3800m - 4:50.69 - (30.1)
4200m - 5:20.64 - (29.9)
4600m - 5:50.55 - (29.9)
5000m - 6:20.64 - (30.0)
3.15 120
3 115 Patrick  Beckert GER GER 6:21.80200m - 19.00 - (19.0)
600m - 48.37 - (29.3)
1000m - 1:18.33 - (29.9)
1400m - 1:48.40 - (30.0)
1800m - 2:18.56 - (30.1)
2200m - 2:48.79 - (30.2)
2600m - 3:19.14 - (30.3)
3000m - 3:49.76 - (30.6)
3400m - 4:20.35 - (30.5)
3800m - 4:50.87 - (30.5)
4200m - 5:21.40 - (30.5)
4600m - 5:51.76 - (30.3)
5000m - 6:21.80 - (30.0)
4.31 106
4 104 Bart  Swings BEL BEL 6:22.38200m - 18.75 - (18.7)
600m - 48.04 - (29.2)
1000m - 1:17.86 - (29.8)
1400m - 1:47.93 - (30.0)
1800m - 2:18.20 - (30.2)
2200m - 2:48.60 - (30.4)
2600m - 3:19.11 - (30.5)
3000m - 3:49.51 - (30.4)
3400m - 4:19.91 - (30.4)
3800m - 4:50.39 - (30.4)
4200m - 5:20.88 - (30.4)
4600m - 5:51.65 - (30.7)
5000m - 6:22.38 - (30.7)
4.89 90
5 136 Wouter  olde Heuvel NED NED 6:23.39200m - 19.04 - (19.0)
600m - 48.54 - (29.5)
1000m - 1:18.37 - (29.8)
1400m - 1:48.44 - (30.0)
1800m - 2:18.56 - (30.1)
2200m - 2:48.78 - (30.2)
2600m - 3:19.16 - (30.3)
3000m - 3:49.79 - (30.6)
3400m - 4:20.61 - (30.8)
3800m - 4:51.46 - (30.8)
4200m - 5:22.09 - (30.6)
4600m - 5:52.88 - (30.7)
5000m - 6:23.39 - (30.5)
5.90 76
6 129 Bob  de Jong NED NED 6:23.59200m - 19.59 - (19.5)
600m - 49.44 - (29.8)
1000m - 1:19.67 - (30.2)
1400m - 1:49.93 - (30.2)
1800m - 2:20.16 - (30.2)
2200m - 2:50.31 - (30.1)
2600m - 3:20.41 - (30.1)
3000m - 3:50.63 - (30.2)
3400m - 4:20.86 - (30.2)
3800m - 4:51.57 - (30.7)
4200m - 5:22.03 - (30.4)
4600m - 5:52.82 - (30.7)
5000m - 6:23.59 - (30.7)
6.10 45
7 150 Aleksandr  Rumyantsev RUS RUS 6:24.21200m - 19.04 - (19.0)
600m - 49.04 - (30.0)
1000m - 1:19.13 - (30.0)
1400m - 1:49.34 - (30.2)
1800m - 2:19.51 - (30.1)
2200m - 2:49.90 - (30.3)
2600m - 3:20.15 - (30.2)
3000m - 3:50.39 - (30.2)
3400m - 4:20.81 - (30.4)
3800m - 4:51.58 - (30.7)
4200m - 5:22.20 - (30.6)
4600m - 6:24.21 - (30.8)
6.72 40
8 130 Douwe  de Vries NED NED 6:24.32200m - 18.72 - (18.7)
600m - 47.90 - (29.1)
1000m - 1:17.89 - (29.9)
1400m - 1:47.98 - (30.0)
1800m - 2:18.22 - (30.2)
2200m - 2:48.59 - (30.3)
2600m - 3:18.99 - (30.4)
3000m - 3:49.71 - (30.7)
3400m - 4:20.71 - (31.0)
3800m - 4:51.49 - (30.7)
4200m - 5:22.62 - (31.1)
4600m - 5:53.55 - (30.9)
5000m - 6:24.32 - (30.7)
6.83 36
9 140 Håvard  Bøkko NOR NOR 6:28.77200m - 18.59 - (18.5)
600m - 48.32 - (29.7)
1000m - 1:18.69 - (30.3)
1400m - 1:49.39 - (30.7)
1800m - 2:19.97 - (30.5)
2200m - 2:50.64 - (30.6)
2600m - 3:21.47 - (30.8)
3000m - 3:52.19 - (30.7)
3400m - 4:23.22 - (31.0)
3800m - 4:54.27 - (31.0)
4200m - 5:25.61 - (31.3)
4600m - 5:57.01 - (31.4)
5000m - 6:28.77 - (31.7)
11.28 32
10 119 Andrea  Giovannini ITA ITA 6:29.67200m - 18.84 - (18.8)
600m - 48.99 - (30.1)
1000m - 1:19.32 - (30.3)
1400m - 1:50.20 - (30.8)
1800m - 2:20.91 - (30.7)
2200m - 2:51.83 - (30.9)
2600m - 3:22.50 - (30.6)
3000m - 3:53.40 - (30.9)
3400m - 4:24.49 - (31.0)
3800m - 4:55.70 - (31.2)
4200m - 5:27.08 - (31.3)
4600m - 5:58.39 - (31.3)
5000m - 6:29.67 - (31.2)
12.18 28
11 114 Alexej  Baumgärtner GER GER 6:38.26200m - 19.28 - (19.2)
600m - 49.15 - (29.8)
1000m - 1:19.64 - (30.4)
1400m - 1:50.17 - (30.5)
1800m - 2:20.99 - (30.8)
2200m - 2:51.89 - (30.9)
2600m - 3:23.38 - (31.4)
3000m - 3:55.15 - (31.7)
3400m - 4:27.21 - (32.0)
3800m - 4:59.64 - (32.4)
4200m - 5:32.37 - (32.7)
4600m - 6:05.26 - (32.8)
5000m - 6:38.26 - (33.0)
20.77 24